TimeEDT,TemperatureF,Dew PointF,Humidity,Sea Level PressureIn,VisibilityMPH,Wind Direction,Wind SpeedMPH,Gust SpeedMPH,PrecipitationIn,Events,Conditions,WindDirDegrees,DateUTC
12:15 AM,71.6,71.6,100,30.12,10.0,Calm,Calm,-,N/A,,Clear,0,2013-06-22 04:15:00
12:35 AM,69.8,69.8,100,30.12,9.0,Calm,Calm,-,N/A,,Clear,0,2013-06-22 04:35:00
12:55 AM,69.8,69.8,100,30.12,7.0,Calm,Calm,-,N/A,,Clear,0,2013-06-22 04:55:00
1:15 AM,69.8,69.8,100,30.11,7.0,Calm,Calm,-,N/A,,Clear,0,2013-06-22 05:15:00
1:35 AM,69.8,69.8,100,30.11,6.0,Calm,Calm,-,N/A,,Clear,0,2013-06-22 05:35:00
1:55 AM,68.0,68.0,100,30.11,7.0,Calm,Calm,-,N/A,,Clear,0,2013-06-22 05:55:00
2:15 AM,69.8,69.8,100,30.11,6.0,Calm,Calm,-,N/A,,Partly Cloudy,0,2013-06-22 06:15:00
2:35 AM,68.0,68.0,100,30.11,6.0,Calm,Calm,-,N/A,,Partly Cloudy,0,2013-06-22 06:35:00
2:55 AM,68.0,68.0,100,30.10,5.0,Calm,Calm,-,N/A,,Partly Cloudy,0,2013-06-22 06:55:00
3:15 AM,68.0,68.0,100,30.10,5.0,Calm,Calm,-,N/A,,Partly Cloudy,0,2013-06-22 07:15:00
3:35 AM,68.0,68.0,100,30.10,5.0,Calm,Calm,-,N/A,,Partly Cloudy,0,2013-06-22 07:35:00
3:55 AM,68.0,68.0,100,30.10,5.0,Calm,Calm,-,N/A,,Scattered Clouds,0,2013-06-22 07:55:00
4:15 AM,68.0,68.0,100,30.10,5.0,Calm,Calm,-,N/A,,Clear,0,2013-06-22 08:15:00
4:35 AM,68.0,68.0,100,30.10,2.5,Calm,Calm,-,N/A,,Clear,0,2013-06-22 08:35:00
4:55 AM,68.0,68.0,100,30.10,2.5,Calm,Calm,-,N/A,,Clear,0,2013-06-22 08:55:00
5:15 AM,68.0,68.0,100,30.10,5.0,Calm,Calm,-,N/A,,Clear,0,2013-06-22 09:15:00
5:35 AM,68.0,68.0,100,30.10,4.0,Calm,Calm,-,N/A,,Clear,0,2013-06-22 09:35:00
5:55 AM,68.0,68.0,100,30.10,2.5,Calm,Calm,-,N/A,,Mostly Cloudy,0,2013-06-22 09:55:00
6:15 AM,68.0,68.0,100,30.10,4.0,Calm,Calm,-,N/A,,Overcast,0,2013-06-22 10:15:00
6:35 AM,68.0,68.0,100,30.11,2.5,Calm,Calm,-,N/A,,Overcast,0,2013-06-22 10:35:00
6:50 AM,68.0,68.0,100,30.11,2.0,Calm,Calm,-,N/A,,Clear,0,2013-06-22 10:50:00
7:50 AM,71.6,71.6,100,30.12,2.0,Calm,Calm,-,N/A,,Clear,0,2013-06-22 11:50:00
8:50 AM,73.4,73.4,100,30.14,2.0,Calm,Calm,-,N/A,,Overcast,0,2013-06-22 12:50:00
9:50 AM,75.2,75.2,100,30.14,5.0,Calm,Calm,-,N/A,,Scattered Clouds,0,2013-06-22 13:50:00
10:50 AM,80.6,73.4,79,30.14,7.0,Calm,Calm,-,N/A,,Mostly Cloudy,0,2013-06-22 14:50:00
11:50 AM,82.4,73.4,74,30.14,7.0,SSW,6.9,-,N/A,,Mostly Cloudy,200,2013-06-22 15:50:00
12:50 PM,84.2,73.4,70,30.14,7.0,SSW,5.8,-,N/A,,Mostly Cloudy,210,2013-06-22 16:50:00
1:50 PM,86.0,73.4,66,30.12,7.0,SW,6.9,-,N/A,,Mostly Cloudy,220,2013-06-22 17:50:00
2:50 PM,77.0,73.4,89,30.12,7.0,East,11.5,-,N/A,,Mostly Cloudy,80,2013-06-22 18:50:00
3:50 PM,75.2,75.2,100,30.14,3.0,ESE,11.5,-,N/A,Rain-Thunderstorm,Light Thunderstorms and Rain,120,2013-06-22 19:50:00
5:50 PM,78.8,75.2,89,30.11,7.0,East,11.5,-,N/A,,Partly Cloudy,90,2013-06-22 21:50:00
6:50 PM,77.0,73.4,89,30.10,7.0,ESE,6.9,-,N/A,,Partly Cloudy,120,2013-06-22 22:50:00
7:50 PM,75.2,73.4,94,30.11,7.0,Calm,Calm,-,N/A,,Clear,0,2013-06-22 23:50:00
8:15 PM,73.4,73.4,100,30.11,9.0,Calm,Calm,-,N/A,,Clear,0,2013-06-23 00:15:00
8:35 PM,73.4,73.4,100,30.12,10.0,Calm,Calm,-,N/A,,Clear,0,2013-06-23 00:35:00
8:55 PM,73.4,73.4,100,30.12,9.0,Calm,Calm,-,N/A,,Clear,0,2013-06-23 00:55:00
9:15 PM,73.4,73.4,100,30.12,10.0,NE,3.5,-,N/A,,Clear,50,2013-06-23 01:15:00
9:35 PM,73.4,73.4,100,30.12,10.0,Calm,Calm,-,N/A,,Partly Cloudy,0,2013-06-23 01:35:00
9:55 PM,73.4,73.4,100,30.12,6.0,ENE,3.5,-,N/A,,Mostly Cloudy,60,2013-06-23 01:55:00
10:15 PM,73.4,73.4,100,30.12,6.0,Calm,Calm,-,N/A,,Partly Cloudy,0,2013-06-23 02:15:00
10:35 PM,73.4,73.4,100,30.13,7.0,Calm,Calm,-,N/A,,Clear,0,2013-06-23 02:35:00
10:55 PM,71.6,71.6,100,30.13,5.0,Calm,Calm,-,N/A,,Clear,0,2013-06-23 02:55:00
11:15 PM,71.6,71.6,100,30.13,3.0,Calm,Calm,-,N/A,,Clear,0,2013-06-23 03:15:00
11:35 PM,71.6,71.6,100,30.13,1.2,Calm,Calm,-,N/A,,Clear,0,2013-06-23 03:35:00
11:55 PM,71.6,71.6,100,30.14,1.0,Calm,Calm,-,N/A,,Mostly Cloudy,0,2013-06-23 03:55:00